TimeEST,TemperatureF,Dew PointF,Humidity,Sea Level PressureIn,VisibilityMPH,Wind Direction,Wind SpeedMPH,Gust SpeedMPH,PrecipitationIn,Events,Conditions,WindDirDegrees,DateUTC
12:00 AM,37.4,32.0,81,30.21,15.0,South,5.8,-,N/A,,Mostly Cloudy,170,2013-11-09 05:00:00
1:00 AM,39,32,69,30.20,15,SSE,5.8,,,,Mostly Cloudy,160,2013-11-09 06:00:00
1:00 AM,39.2,32.0,75,30.20,15.0,SSE,5.8,-,N/A,,Mostly Cloudy,160,2013-11-09 06:00:00
2:00 AM,39.2,33.8,81,30.18,15.0,South,8.1,-,N/A,,Overcast,170,2013-11-09 07:00:00
3:00 AM,39.2,33.8,81,30.15,15.0,SSE,8.1,-,N/A,,Overcast,160,2013-11-09 08:00:00
4:00 AM,41.0,33.8,76,30.12,15.0,South,8.1,-,N/A,,Overcast,170,2013-11-09 09:00:00
5:00 AM,41.0,33.8,76,30.09,15.0,South,9.2,-,N/A,,Overcast,180,2013-11-09 10:00:00
6:00 AM,42.8,32.0,66,30.06,15.0,South,16.1,-,N/A,,Overcast,180,2013-11-09 11:00:00
7:00 AM,44,32,52,30.02,15,South,18.4,,,,Mostly Cloudy,190,2013-11-09 12:00:00
7:00 AM,42.8,32.0,66,30.02,15.0,South,18.4,24.2,N/A,,Mostly Cloudy,190,2013-11-09 12:00:00
8:00 AM,44.6,32.0,61,30.00,15.0,SSW,21.9,27.6,N/A,,Mostly Cloudy,200,2013-11-09 13:00:00
9:00 AM,46.4,32.0,57,29.98,15.0,SSW,21.9,28.8,N/A,,Scattered Clouds,210,2013-11-09 14:00:00
10:00 AM,48.2,32.0,54,29.93,15.0,SSW,28.8,34.5,N/A,,Partly Cloudy,210,2013-11-09 15:00:00
11:00 AM,50.0,35.6,58,29.89,15.0,SW,19.6,25.3,N/A,,Partly Cloudy,220,2013-11-09 16:00:00
12:00 PM,53.6,35.6,51,29.86,15.0,WSW,27.6,34.5,N/A,,Mostly Cloudy,240,2013-11-09 17:00:00
1:00 PM,54,37,40,29.83,15,SW,25.3,,,,Scattered Clouds,230,2013-11-09 18:00:00
1:00 PM,53.6,37.4,54,29.83,15.0,WSW,24.2,31.1,N/A,,Partly Cloudy,240,2013-11-09 18:00:00
2:00 PM,55.4,37.4,51,29.82,15.0,WSW,21.9,29.9,N/A,,Mostly Cloudy,240,2013-11-09 19:00:00
3:00 PM,57.2,41.0,55,29.82,15.0,WSW,19.6,-,N/A,,Mostly Cloudy,240,2013-11-09 20:00:00
4:00 PM,57.2,41.0,55,29.82,15.0,West,23.0,28.8,N/A,,Mostly Cloudy,260,2013-11-09 21:00:00
5:00 PM,57.2,41.0,55,29.84,15.0,WSW,18.4,-,N/A,,Mostly Cloudy,250,2013-11-09 22:00:00
6:00 PM,55.4,37.4,51,29.88,15.0,West,24.2,33.4,N/A,,Overcast,280,2013-11-09 23:00:00
7:00 PM,54,39,45,29.88,15,West,18.4,,,,Mostly Cloudy,270,2013-11-10 00:00:00
7:00 PM,55.4,39.2,54,29.88,15.0,West,18.4,25.3,N/A,,Mostly Cloudy,270,2013-11-10 00:00:00
8:00 PM,55.4,39.2,54,29.88,15.0,West,16.1,-,N/A,,Overcast,270,2013-11-10 01:00:00
9:00 PM,53.6,39.2,58,29.88,15.0,West,18.4,24.2,N/A,,Overcast,270,2013-11-10 02:00:00
10:00 PM,53.6,37.4,54,29.90,15.0,West,23.0,28.8,N/A,,Mostly Cloudy,280,2013-11-10 03:00:00
11:00 PM,51.8,37.4,58,29.90,15.0,WNW,11.5,-,N/A,Rain,Light Rain Showers,290,2013-11-10 04:00:00
11:34 PM,-9999,-9999,N/A,-9999,15.0,West,8.1,-,N/A,Rain,Light Rain Showers,280,2013-11-10 04:34:00